When you browse on this site, cookies collect data to enhance your experience and personalize the content and advertising you see.
Visit our Privacy Policy to learn more. By continuing to use the site, you agree to this use of cookies and data.

Previsão horária em Koryzhi

Hoje, 13 Agosto, Quinta-feira

Tempo Temperatura Precipitação Vento Pressão Humidade
00:00 +12°C° 0 mm 1 m/s 758 mmHg 80%
01:00 +10°C° 0 mm 0 m/s 758 mmHg 82%
02:00 +10°C° 0 mm 0 m/s 758 mmHg 84%
03:00 +11°C° 0 mm 1 m/s 758 mmHg 82%
04:00 +12°C° 0 mm 1 m/s 758 mmHg 81%
05:00 +12°C° 0 mm 1 m/s 757 mmHg 79%
06:00 +13°C° 0 mm 1 m/s 757 mmHg 77%
07:00 +14°C° 0 mm 1 m/s 757 mmHg 76%
08:00 +15°C° 0 mm 1 m/s 758 mmHg 70%
09:00 +16°C° 0 mm 2 m/s 757 mmHg 66%
10:00 +17°C° 0 mm 2 m/s 757 mmHg 61%
11:00 +19°C° 0 mm 2 m/s 757 mmHg 56%
12:00 +18°C° 0.1 mm 2 m/s 757 mmHg 58%
13:00 +18°C° 0.1 mm 2 m/s 757 mmHg 61%
14:00 +17°C° 0 mm 2 m/s 757 mmHg 66%
15:00 +19°C° 0 mm 1 m/s 757 mmHg 65%
16:00 +19°C° 0 mm 1 m/s 756 mmHg 65%
17:00 +19°C° 0 mm 1 m/s 756 mmHg 64%
18:00 +18°C° 0 mm 1 m/s 756 mmHg 68%
19:00 +15°C° 0 mm 0 m/s 756 mmHg 73%
20:00 +13°C° 0 mm 0 m/s 756 mmHg 77%
21:00 +13°C° 0 mm 0 m/s 756 mmHg 78%
22:00 +13°C° 0 mm 0 m/s 756 mmHg 79%
23:00 +13°C° 0 mm 0 m/s 757 mmHg 80%

Amanhã, 14 Agosto, Sexta-feira

Tempo Temperatura Precipitação Vento Pressão Humidade
00:00 +12°C° 0 mm 0 m/s 757 mmHg 81%
01:00 +12°C° 0 mm 0 m/s 757 mmHg 83%
02:00 +12°C° 0 mm 0 m/s 757 mmHg 84%
03:00 +12°C° 0 mm 1 m/s 757 mmHg 86%
04:00 +12°C° 0 mm 1 m/s 757 mmHg 89%
05:00 +11°C° 0 mm 1 m/s 757 mmHg 91%
06:00 +13°C° 0 mm 1 m/s 757 mmHg 85%
07:00 +15°C° 0 mm 1 m/s 757 mmHg 78%
08:00 +16°C° 0 mm 1 m/s 757 mmHg 72%
09:00 +19°C° 0 mm 1 m/s 757 mmHg 67%
10:00 +19°C° 0 mm 2 m/s 757 mmHg 63%
11:00 +20°C° 0 mm 2 m/s 757 mmHg 58%
12:00 +20°C° 0 mm 2 m/s 756 mmHg 59%
13:00 +21°C° 0 mm 2 m/s 756 mmHg 59%
14:00 +21°C° 0 mm 2 m/s 756 mmHg 59%
15:00 +21°C° 0 mm 2 m/s 756 mmHg 60%
16:00 +21°C° 0 mm 2 m/s 755 mmHg 60%
17:00 +22°C° 0 mm 1 m/s 755 mmHg 61%
18:00 +20°C° 0 mm 1 m/s 755 mmHg 69%
19:00 +19°C° 0 mm 1 m/s 755 mmHg 78%
20:00 +16°C° 0 mm 1 m/s 755 mmHg 86%
21:00 +15°C° 0 mm 1 m/s 755 mmHg 89%
22:00 +15°C° 0 mm 1 m/s 756 mmHg 92%
23:00 +14°C° 0 mm 2 m/s 756 mmHg 95%

Depois de amanhã, 15 Agosto, Sábado

Tempo Temperatura Precipitação Vento Pressão Humidade
00:00 +14°C° 0 mm 2 m/s 756 mmHg 95%
01:00 +14°C° 0 mm 2 m/s 756 mmHg 95%
02:00 +13°C° 0 mm 2 m/s 756 mmHg 96%
03:00 +13°C° 0 mm 1 m/s 756 mmHg 96%
04:00 +13°C° 0 mm 1 m/s 756 mmHg 96%
05:00 +13°C° 0 mm 1 m/s 755 mmHg 97%
06:00 +14°C° 0 mm 1 m/s 756 mmHg 92%
07:00 +16°C° 0 mm 1 m/s 756 mmHg 87%
08:00 +17°C° 0 mm 2 m/s 756 mmHg 82%
09:00 +19°C° 0 mm 2 m/s 755 mmHg 74%
10:00 +21°C° 0 mm 2 m/s 755 mmHg 67%
11:00 +23°C° 0 mm 2 m/s 755 mmHg 59%
12:00 +24°C° 0 mm 2 m/s 755 mmHg 57%
13:00 +25°C° 0 mm 2 m/s 755 mmHg 56%
14:00 +25°C° 0 mm 3 m/s 755 mmHg 54%
15:00 +25°C° 0.1 mm 2 m/s 755 mmHg 58%
16:00 +25°C° 0.1 mm 2 m/s 754 mmHg 62%
17:00 +24°C° 0.1 mm 2 m/s 754 mmHg 65%
18:00 +23°C° 0.2 mm 2 m/s 754 mmHg 73%
19:00 +20°C° 0.2 mm 2 m/s 754 mmHg 81%
20:00 +19°C° 0.2 mm 1 m/s 754 mmHg 89%
21:00 +18°C° 0 mm 2 m/s 754 mmHg 91%
22:00 +17°C° 0 mm 2 m/s 754 mmHg 93%
23:00 +16°C° 0 mm 2 m/s 754 mmHg 94%

16 Agosto, Domingo

Tempo Temperatura Precipitação Vento Pressão Humidade
00:00 +16°C° 0 mm 2 m/s 754 mmHg 95%
01:00 +15°C° 0 mm 2 m/s 754 mmHg 95%
02:00 +15°C° 0 mm 2 m/s 754 mmHg 95%
03:00 +15°C° 0 mm 2 m/s 754 mmHg 96%
04:00 +14°C° 0 mm 2 m/s 754 mmHg 96%
05:00 +14°C° 0 mm 2 m/s 754 mmHg 97%
06:00 +16°C° 0 mm 2 m/s 754 mmHg 92%
07:00 +17°C° 0 mm 2 m/s 754 mmHg 87%
08:00 +19°C° 0 mm 2 m/s 754 mmHg 81%
09:00 +21°C° 0 mm 3 m/s 754 mmHg 73%
10:00 +24°C° 0 mm 3 m/s 754 mmHg 64%
11:00 +26°C° 0 mm 4 m/s 754 mmHg 55%
12:00 +26°C° 0 mm 4 m/s 754 mmHg 54%
13:00 +27°C° 0 mm 4 m/s 754 mmHg 52%
14:00 +27°C° 0 mm 4 m/s 754 mmHg 51%
15:00 +27°C° 0 mm 4 m/s 753 mmHg 52%
16:00 +26°C° 0 mm 4 m/s 753 mmHg 54%
17:00 +26°C° 0 mm 4 m/s 753 mmHg 56%
18:00 +24°C° 0 mm 3 m/s 753 mmHg 63%
19:00 +21°C° 0 mm 3 m/s 753 mmHg 70%
20:00 +19°C° 0 mm 2 m/s 753 mmHg 76%
21:00 +19°C° 0 mm 2 m/s 753 mmHg 79%
22:00 +18°C° 0 mm 2 m/s 753 mmHg 82%
23:00 +17°C° 0 mm 2 m/s 753 mmHg 86%

17 Agosto, Segunda-feira

Tempo Temperatura Precipitação Vento Pressão Humidade
00:00 +16°C° 0 mm 2 m/s 753 mmHg 89%
01:00 +16°C° 0 mm 2 m/s 753 mmHg 93%
02:00 +15°C° 0 mm 2 m/s 753 mmHg 96%
03:00 +15°C° 0 mm 2 m/s 752 mmHg 96%
04:00 +15°C° 0 mm 2 m/s 752 mmHg 97%
05:00 +14°C° 0 mm 2 m/s 752 mmHg 97%
06:00 +16°C° 0 mm 2 m/s 752 mmHg 88%
07:00 +17°C° 0 mm 2 m/s 752 mmHg 79%
08:00 +18°C° 0 mm 2 m/s 752 mmHg 70%
09:00 +20°C° 0 mm 2 m/s 752 mmHg 62%
10:00 +21°C° 0 mm 3 m/s 752 mmHg 54%
11:00 +22°C° 0 mm 3 m/s 752 mmHg 46%
12:00 +24°C° 0 mm 3 m/s 752 mmHg 45%
13:00 +24°C° 0 mm 3 m/s 752 mmHg 43%
14:00 +24°C° 0 mm 3 m/s 752 mmHg 42%
15:00 +24°C° 0 mm 3 m/s 752 mmHg 44%
16:00 +22°C° 0 mm 3 m/s 751 mmHg 47%
17:00 +22°C° 0 mm 3 m/s 751 mmHg 49%
18:00 +20°C° 0 mm 2 m/s 751 mmHg 55%
19:00 +18°C° 0 mm 2 m/s 751 mmHg 61%
20:00 +16°C° 0 mm 1 m/s 751 mmHg 66%
21:00 +15°C° 0 mm 1 m/s 751 mmHg 68%
22:00 +14°C° 0 mm 1 m/s 751 mmHg 69%
23:00 +12°C° 0 mm 0 m/s 751 mmHg 70%

18 Agosto, Terça-feira

Tempo Temperatura Precipitação Vento Pressão Humidade
00:00 +12°C° 0 mm 0 m/s 751 mmHg 71%
01:00 +12°C° 0 mm 0 m/s 751 mmHg 72%
02:00 +11°C° 0 mm 0 m/s 751 mmHg 73%
03:00 +12°C° 0 mm 0 m/s 751 mmHg 72%
04:00 +12°C° 0 mm 0 m/s 751 mmHg 72%
05:00 +13°C° 0 mm 1 m/s 751 mmHg 71%
06:00 +14°C° 0 mm 1 m/s 751 mmHg 69%
07:00 +16°C° 0 mm 1 m/s 751 mmHg 68%
08:00 +18°C° 0 mm 1 m/s 751 mmHg 66%
09:00 +19°C° 0 mm 2 m/s 751 mmHg 62%
10:00 +21°C° 0 mm 2 m/s 751 mmHg 58%
11:00 +23°C° 0 mm 2 m/s 750 mmHg 54%
12:00 +24°C° 0 mm 2 m/s 750 mmHg 52%
13:00 +25°C° 0 mm 3 m/s 750 mmHg 50%
14:00 +26°C° 0 mm 3 m/s 750 mmHg 48%
15:00 +25°C° 0.1 mm 3 m/s 750 mmHg 53%
16:00 +24°C° 0.1 mm 3 m/s 750 mmHg 58%
17:00 +24°C° 0.1 mm 3 m/s 750 mmHg 64%
18:00 +21°C° 0 mm 2 m/s 750 mmHg 72%
19:00 +19°C° 0 mm 2 m/s 750 mmHg 81%
20:00 +18°C° 0 mm 1 m/s 750 mmHg 89%
21:00 +18°C° 0 mm 1 m/s 750 mmHg 91%
22:00 +16°C° 0 mm 1 m/s 750 mmHg 92%
23:00 +15°C° 0 mm 1 m/s 750 mmHg 94%
Mostrar mais